Weather History for KDUX - February, 2014

Change the Weather History Date:

Tuesday, February 4, 2014

  Actual Average (KBGD) Record (KBGD)
Temperature  
Mean Temperature 20 °F 41 °F  
Max Temperature 28 °F 53 °F 76 °F (1963)
Min Temperature 12 °F 28 °F -5 °F (1989)
Degree Days  
Heating Degree Days 45 24  
Month to date heating degree days 99  
Since 1 July heating degree days 2451  
Cooling Degree Days 0 0  
Month to date cooling degree days 0  
Year to date cooling degree days 0  
Moisture  
Dew Point 21 °F    
Average Humidity 88    
Maximum Humidity 99    
Minimum Humidity 76    
Precipitation  
Precipitation 0.01 in 0.03 in 1.60 in (1964)
Month to date precipitation 0.10  
Year to date precipitation 0.69  
Snow  
Snow 0.00 in - 14.00 in (1964)
Month to date snowfall  
Since 1 July snowfall  
Snow Depth -    
Sea Level Pressure  
Sea Level Pressure 29.90 in    
Wind  
Wind Speed 10 mph (NNE)    
Max Wind Speed 25 mph    
Max Gust Speed 31 mph    
Visibility 7 miles    
Events Snow    
T = Trace of Precipitation, MM = Missing Value Source: NWS Daily Summary

Daily Weather History Graph

Daily Weather History Graph

Search for Another Location

Airport or City:

Trip Planner

Search our weather history database for the weather conditions in past years. The results will help you decide how hot, cold, wet, or windy it might be!

Date:

Astronomy

Feb. 04, 2014 Rise Set
Actual Time 7:45 AM CST 6:18 PM CST
Civil Twilight 7:19 AM CST 6:45 PM CST
Nautical Twilight 6:48 AM CST 7:15 PM CST
Astronomical Twilight 6:18 AM CST 7:45 PM CST
Moon 10:37 AM CST No Moon Set
Length of Visible Light 11h 26m
Length of Day
10h 32m
Waxing Crescent, 29% of the Moon is Illuminated
Feb 4
Waxing Crescent
Feb 6
First Quarter
Feb 14
Full
Feb 22
Last Quarter
Mar 1
New

Hourly Weather History & Observations

Time (CST) Temp. Windchill Dew Point Humidity Pressure Visibility Wind Dir Wind Speed Gust Speed Precip Events Conditions
12:15 AM 28.0 °F 19.3 °F 25.0 °F 88% 29.83 in 10.0 mi SE 9.2 mph - N/A   Overcast
12:35 AM 27.5 °F 20.2 °F 24.4 °F 88% 29.84 in 10.0 mi SE 6.9 mph - N/A   Overcast
12:55 AM 27.0 °F 18.7 °F 24.4 °F 90% 29.83 in 7.0 mi SE 8.1 mph - N/A   Overcast
1:15 AM 26.6 °F 19.1 °F 24.4 °F 92% 29.83 in 7.0 mi SE 6.9 mph - N/A   Overcast
1:35 AM 26.6 °F 18.2 °F 24.6 °F 92% 29.84 in 7.0 mi SE 8.1 mph - N/A   Overcast
1:55 AM 26.6 °F 17.5 °F 25.3 °F 95% 29.84 in 5.0 mi SSE 9.2 mph - N/A   Overcast
2:15 AM 26.4 °F 18.0 °F 25.3 °F 96% 29.83 in 2.5 mi SE 8.1 mph - N/A   Overcast
2:35 AM 25.9 °F 17.4 °F 25.3 °F 98% 29.83 in 1.0 mi SE 8.1 mph - N/A   Overcast
2:55 AM 25.7 °F 18.0 °F 25.3 °F 99% 29.82 in 1.0 mi SE 6.9 mph - N/A   Overcast
3:15 AM 25.7 °F 18.0 °F 24.8 °F 96% 29.82 in 1.2 mi SE 6.9 mph - N/A Snow Light Snow
3:35 AM 25.7 °F 18.0 °F 24.8 °F 96% 29.81 in 1.5 mi ESE 6.9 mph - N/A Snow Light Snow
3:55 AM 25.5 °F 16.9 °F 24.4 °F 96% 29.81 in 1.0 mi SE 8.1 mph - 0.01 in Snow Snow
4:15 AM 25.2 °F 16.5 °F 24.1 °F 96% 29.80 in 1.8 mi SE 8.1 mph - N/A Snow Light Snow
4:35 AM 25.2 °F 16.5 °F 23.9 °F 95% 29.80 in 1.5 mi SSE 8.1 mph - N/A   Overcast
4:55 AM 25.2 °F 18.3 °F 23.9 °F 95% 29.78 in 2.5 mi SE 5.8 mph - N/A   Overcast
5:15 AM 25.2 °F 18.3 °F 24.3 °F 96% 29.78 in 3.0 mi SSE 5.8 mph - N/A   Overcast
5:35 AM 25.2 °F 18.3 °F 24.3 °F 96% 29.78 in 4.0 mi SE 5.8 mph - N/A   Overcast
5:55 AM 24.8 °F 19.1 °F 23.9 °F 96% 29.79 in 5.0 mi SSE 4.6 mph - N/A   Overcast
6:15 AM 25.2 °F 18.3 °F 24.3 °F 96% 29.79 in 5.0 mi SSE 5.8 mph - N/A   Overcast
6:35 AM 25.2 °F 20.9 °F 24.3 °F 96% 29.79 in 5.0 mi South 3.5 mph - N/A   Overcast
6:55 AM 25.3 °F - 24.4 °F 96% 29.79 in 7.0 mi Calm Calm - N/A   Overcast
7:15 AM 25.5 °F - 24.6 °F 96% 29.78 in 7.0 mi Calm Calm - N/A   Overcast
7:35 AM 25.5 °F 21.3 °F 24.6 °F 96% 29.79 in 7.0 mi North 3.5 mph - N/A   Overcast
7:55 AM 25.5 °F 18.7 °F 24.6 °F 96% 29.78 in 5.0 mi North 5.8 mph - N/A   Overcast
8:15 AM 25.5 °F 18.7 °F 24.6 °F 96% 29.79 in 4.0 mi North 5.8 mph - N/A   Overcast
8:35 AM 25.7 °F 19.0 °F 24.8 °F 96% 29.80 in 3.0 mi North 5.8 mph - N/A   Overcast
8:55 AM 25.7 °F 20.1 °F 24.8 °F 96% 29.81 in 3.0 mi NNE 4.6 mph - N/A   Overcast
9:15 AM 25.7 °F 18.0 °F 24.6 °F 96% 29.81 in 4.0 mi NNE 6.9 mph - N/A   Overcast
9:35 AM 26.1 °F 19.4 °F 24.4 °F 94% 29.82 in 7.0 mi NNE 5.8 mph - N/A   Overcast
9:55 AM 26.1 °F 18.4 °F 24.1 °F 92% 29.82 in 10.0 mi NNE 6.9 mph - N/A   Overcast
10:15 AM 26.6 °F 18.2 °F 24.1 °F 90% 29.82 in 10.0 mi North 8.1 mph - N/A   Overcast
10:35 AM 26.6 °F 15.7 °F 24.3 °F 91% 29.84 in 10.0 mi North 12.7 mph - N/A   Overcast
10:55 AM 27.1 °F 17.5 °F 24.6 °F 90% 29.83 in 10.0 mi North 10.4 mph - N/A   Overcast
11:15 AM 27.3 °F 16.6 °F 24.6 °F 90% 29.84 in 7.0 mi North 12.7 mph - N/A   Overcast
11:35 AM 27.3 °F 17.1 °F 24.6 °F 90% 29.84 in 7.0 mi North 11.5 mph - N/A   Overcast
11:55 AM 27.9 °F 17.3 °F 24.4 °F 87% 29.83 in 7.0 mi North 12.7 mph 17.3 mph N/A   Overcast
12:15 PM 28.2 °F 16.8 °F 24.4 °F 86% 29.83 in 7.0 mi North 15.0 mph 18.4 mph N/A   Overcast
12:35 PM 27.5 °F 15.0 °F 23.2 °F 84% 29.84 in 10.0 mi North 17.3 mph - N/A   Overcast
12:55 PM 27.5 °F 15.0 °F 23.0 °F 83% 29.84 in 10.0 mi North 17.3 mph 21.9 mph N/A   Overcast
1:15 PM 27.3 °F 14.0 °F 23.0 °F 84% 29.83 in 10.0 mi North 19.6 mph - N/A   Overcast
1:35 PM 27.5 °F 15.0 °F 23.2 °F 84% 29.83 in 10.0 mi North 17.3 mph 20.7 mph N/A   Overcast
1:55 PM 27.5 °F 15.0 °F 22.5 °F 81% 29.84 in 10.0 mi NNW 17.3 mph - N/A   Mostly Cloudy
2:15 PM 28.0 °F 15.3 °F 22.6 °F 80% 29.83 in 10.0 mi NNW 18.4 mph 23.0 mph N/A   Mostly Cloudy
2:35 PM 28.0 °F 16.1 °F 22.1 °F 78% 29.84 in 10.0 mi NNW 16.1 mph - N/A   Mostly Cloudy
2:55 PM 26.6 °F 13.1 °F 21.7 °F 82% 29.85 in 10.0 mi North 19.6 mph 29.9 mph N/A   Overcast
3:15 PM 26.2 °F 12.6 °F 21.9 °F 84% 29.86 in 10.0 mi North 19.6 mph 26.5 mph N/A   Overcast
3:35 PM 26.4 °F 13.2 °F 20.7 °F 79% 29.87 in 10.0 mi North 18.4 mph 23.0 mph N/A   Overcast
3:55 PM 25.5 °F 12.4 °F 19.8 °F 79% 29.88 in 10.0 mi North 17.3 mph - N/A   Overcast
4:15 PM 24.8 °F 10.7 °F 19.0 °F 79% 29.90 in 10.0 mi NNW 19.6 mph 26.5 mph N/A   Overcast
4:35 PM 24.6 °F 9.7 °F 18.7 °F 78% 29.91 in 10.0 mi North 21.9 mph 26.5 mph N/A   Overcast
4:55 PM 24.3 °F 10.0 °F 18.3 °F 78% 29.92 in 10.0 mi North 19.6 mph 29.9 mph N/A   Overcast
5:15 PM 24.1 °F 9.4 °F 18.5 °F 79% 29.93 in 10.0 mi North 20.7 mph 27.6 mph N/A   Overcast
5:35 PM 23.5 °F 7.3 °F 18.1 °F 80% 29.95 in 10.0 mi North 25.3 mph 28.8 mph N/A   Overcast
6:15 PM 23.4 °F 8.1 °F 16.7 °F 76% 29.98 in 10.0 mi North 21.9 mph 27.6 mph N/A   Overcast
6:35 PM 23.0 °F 8.3 °F 18.0 °F 81% 30.00 in 10.0 mi North 19.6 mph - N/A   Overcast
6:55 PM 22.5 °F 9.4 °F 17.6 °F 82% 30.01 in 10.0 mi North 15.0 mph 21.9 mph N/A   Mostly Cloudy
7:15 PM 21.9 °F 8.7 °F 17.4 °F 83% 30.03 in 10.0 mi North 15.0 mph - N/A   Overcast
7:35 PM 21.6 °F 8.2 °F 16.7 °F 82% 30.06 in 10.0 mi North 15.0 mph 18.4 mph N/A   Overcast
7:55 PM 21.2 °F 6.4 °F 16.2 °F 81% 30.07 in 10.0 mi North 18.4 mph 24.2 mph N/A   Mostly Cloudy
8:15 PM 20.1 °F 5.9 °F 15.1 °F 81% 30.07 in 10.0 mi North 16.1 mph 23.0 mph N/A   Mostly Cloudy
8:35 PM 19.9 °F 5.7 °F 14.5 °F 80% 30.09 in 10.0 mi North 16.1 mph - N/A   Overcast
8:55 PM 19.4 °F 4.5 °F 14.5 °F 81% 30.09 in 10.0 mi North 17.3 mph 23.0 mph N/A   Overcast
9:15 PM 18.5 °F 2.0 °F 14.4 °F 84% 30.11 in 5.0 mi North 20.7 mph 29.9 mph N/A Snow Light Snow
9:35 PM 16.9 °F -0.5 °F 12.9 °F 84% 30.11 in 7.0 mi NNE 21.9 mph 26.5 mph N/A   Mostly Cloudy
9:55 PM 15.4 °F -2.4 °F 11.7 °F 85% 30.12 in 5.0 mi North 21.9 mph 31.1 mph N/A   Mostly Cloudy
10:15 PM 14.4 °F -1.5 °F 10.2 °F 84% 30.15 in 10.0 mi NNE 16.1 mph 27.6 mph N/A   Mostly Cloudy
10:35 PM 14.0 °F -0.2 °F 10.0 °F 84% 30.19 in 10.0 mi NNE 12.7 mph 19.6 mph N/A   Overcast
10:55 PM 13.5 °F -0.9 °F 9.5 °F 84% 30.20 in 10.0 mi North 12.7 mph - N/A   Mostly Cloudy
11:15 PM 12.9 °F -2.8 °F 8.4 °F 82% 30.20 in 10.0 mi NNE 15.0 mph 19.6 mph N/A   Mostly Cloudy
11:35 PM 12.7 °F -2.5 °F 8.2 °F 82% 30.22 in 10.0 mi North 13.8 mph 21.9 mph N/A   Overcast
11:55 PM 12.2 °F -4.3 °F 7.7 °F 82% 30.22 in 5.0 mi North 16.1 mph - N/A Snow Light Snow